Terminal Aerodrome Forecast
Issued by NWS

Home | Current Version | Previous Version | Text Only | Print | Product List | Glossary On
Versions: 1 2 3 4 5 6 7 8 9 10 11 12 13 14 15 16 17 18 19 20 21 22 23 24 25 26 27 28 29 30 31 32 33 34 35 36 37 38 39 40 41 42 43 44 45 46 47
000
FTAK31 PANC 230523
TAFASN
TAF
PASN 230523Z 2306/2406 09046G58KT 1/4SM SN BLSN OVC001
      TEMPO 2306/2310 1/2SM SN BLSN
     FM231500 05035G45KT 1/4SM SN BLSN OVC003
     FM240000 03025G35KT 1SM -SN BLSN OVC003=

USA.gov is the U.S. government's official web portal to all federal, state and local government web resources and services.